Location: Bernay
(48.6766°N, 2.9386°E)
Time: 18:29:30
(UTC+00:00)

ATLAS 3B R/B - Pass Details

Date: 12 January 2026
Orbit: 936 x 1258 km, 63.8° (Epoch: 15 February)

Event Time Altitude Azimuth Distance (km) Brightness Sun altitude
Rises 19:37:03 0° 294° (WNW) 4,186 6.7 -32.4°
Reaches altitude 10° 19:40:26 10° 307° (NW) 3,238 5.8 -33.0°
Maximum altitude 19:46:52 26° 2° (N) 2,243 4.3 -34.0°
Enters shadow 19:47:19 26° 7° (N) 2,248 4.3 -34.1°
